Weather History for North Island, CA

Change the Weather History Date:

Sunday, February 17, 2013

  Actual Average Record
Temperature  
Mean Temperature 55 °F -  
Max Temperature 62 °F 61 °F 84 °F (2007)
Min Temperature 48 °F 48 °F 46 °F (1997)
Degree Days  
Heating Degree Days 10    
Growing Degree Days 5 (Base 50)    
Moisture  
Dew Point 45 °F    
Average Humidity 65    
Maximum Humidity 70    
Minimum Humidity 54    
Precipitation  
Precipitation 0.00 in - - ()
Sea Level Pressure  
Sea Level Pressure 29.99 in    
Wind  
Wind Speed 4 mph (South)    
Max Wind Speed 9 mph    
Max Gust Speed -    
Visibility 9 miles    
Events      
Averages and records for this station are not official NWS values.
T = Trace of Precipitation, MM = Missing Value Source: NWS Daily Summary

Daily Weather History Graph

Daily Weather History Graph

Search for Another Location

Airport:

Trip Planner

Search our weather history database for the weather conditions in past years. The results will help you decide how hot, cold, wet, or windy it might be!

Date:

Astronomy

Feb. 17, 2013 Rise Set
Actual Time 6:29 AM PST 5:36 PM PST
Civil Twilight 6:04 AM PST 6:01 PM PST
Nautical Twilight 5:35 AM PST 6:30 PM PST
Astronomical Twilight 5:07 AM PST 6:59 PM PST
Moon 10:51 AM PST (2/17) 12:11 AM PST (2/17)
Length of Visible Light 11h 57m
Length of Day
11h 06m
Waxing Crescent, 50% of the Moon is Illuminated
Feb 17
Waxing Crescent
Feb 17
First Quarter
Feb 25
Full
Mar 4
Last Quarter
Mar 11
New

Hourly Weather History & Observations

Time (PST) Temp. Dew Point Humidity Pressure Visibility Wind Dir Wind Speed Gust Speed Precip Events Conditions
12:52 AM 55.9 °F 46.0 °F 69% 29.99 in 10.0 mi Calm Calm - N/A   Partly Cloudy
1:52 AM 53.1 °F 42.1 °F 66% 29.99 in 10.0 mi East 4.6 mph - N/A   Partly Cloudy
2:52 AM 50.0 °F 37.0 °F 61% 29.97 in 10.0 mi ESE 5.8 mph - N/A   Partly Cloudy
3:52 AM 48.9 °F 36.0 °F 61% 29.96 in 10.0 mi East 3.5 mph - N/A   Partly Cloudy
4:52 AM 50.0 °F 36.0 °F 59% 29.96 in 10.0 mi Calm Calm - N/A   Partly Cloudy
5:52 AM 52.0 °F 36.0 °F 54% 29.97 in 10.0 mi SE 3.5 mph - N/A   Scattered Clouds
6:52 AM 48.9 °F 36.0 °F 61% 29.98 in 10.0 mi Calm Calm - N/A   Scattered Clouds
7:10 AM 48.2 °F 35.6 °F 62% 29.98 in 10.0 mi Calm Calm - N/A   Scattered Clouds
7:52 AM 55.9 °F 44.1 °F 64% 29.99 in 7.0 mi Calm Calm - N/A   Scattered Clouds
8:52 AM 60.1 °F 48.0 °F 64% 30.00 in 8.0 mi SSE 8.1 mph - N/A   Scattered Clouds
9:18 AM 59.0 °F 48.2 °F 67% 30.00 in 8.0 mi South 5.8 mph - N/A   Mostly Cloudy
9:52 AM 60.1 °F 50.0 °F 69% 30.01 in 8.0 mi South 6.9 mph - N/A   Mostly Cloudy
10:43 AM 60.8 °F 50.0 °F 68% 30.01 in 8.0 mi SW 8.1 mph - N/A   Mostly Cloudy
10:52 AM 60.1 °F 50.0 °F 69% 30.00 in 8.0 mi SSW 8.1 mph - N/A   Scattered Clouds
11:52 AM 60.1 °F 48.9 °F 67% 29.99 in 10.0 mi SSW 8.1 mph - N/A   Partly Cloudy
12:52 PM 61.0 °F 50.0 °F 67% 29.97 in 10.0 mi SSW 8.1 mph - N/A   Scattered Clouds
1:06 PM 62.6 °F 50.0 °F 63% 29.97 in 10.0 mi South 8.1 mph - N/A   Mostly Cloudy
1:52 PM 61.0 °F 48.9 °F 64% 29.96 in 10.0 mi SW 8.1 mph - N/A   Mostly Cloudy
2:11 PM 60.8 °F 48.2 °F 63% 29.97 in 10.0 mi SSW 9.2 mph - N/A   Mostly Cloudy
2:52 PM 60.1 °F 48.0 °F 64% 29.97 in 9.0 mi SSW 6.9 mph - N/A   Mostly Cloudy
3:52 PM 57.9 °F 46.9 °F 67% 29.98 in 9.0 mi SSW 8.1 mph - N/A   Mostly Cloudy
4:52 PM 57.9 °F 48.0 °F 70% 29.98 in 8.0 mi South 5.8 mph - N/A   Overcast
5:52 PM 57.0 °F 46.0 °F 67% 29.99 in 10.0 mi SSE 3.5 mph - N/A   Overcast
6:52 PM 57.0 °F 46.0 °F 67% 29.99 in 10.0 mi South 3.5 mph - N/A   Overcast
7:52 PM 57.0 °F 46.0 °F 67% 30.00 in 10.0 mi SSW 4.6 mph - N/A   Overcast
8:52 PM 57.0 °F 46.0 °F 67% 30.01 in 10.0 mi SSW 5.8 mph - N/A   Overcast
9:52 PM 55.9 °F 46.0 °F 69% 30.02 in 10.0 mi Calm Calm - N/A   Overcast
10:52 PM 55.9 °F 46.0 °F 69% 30.03 in 9.0 mi SSE 5.8 mph - N/A   Overcast
11:52 PM 55.9 °F 46.0 °F 69% 30.04 in 8.0 mi East 3.5 mph - N/A   Mostly Cloudy